• Join FlightAware (Why Join?)
  • Login
  • US Flag 
09:37PM EST


 

Airport Tracker/Info


-or-


 

Live Flight TrackerFlight Track Log ✈ FFT929 ✈ 30-Apr-2013 ✈ KTTN - KDTW

Flight Track Log - Related Links

Times and Time Zones

All times are in EDT time to prevent confusion due to time zone crossing. See the FFT929 flight status page for this flight to view local times or setup timezone preferences in your user account.

Time Position Orientation Groundspeed Altitude Reporting Facility
EDT Latitude Longitude Course Direction KTS MPH feet Rate Location/Type
05:42PM 40.2833 -74.8000 349° North 136 157 800  Level Philadelphia TRACON
05:43PM 40.3500 -74.8167 349° North 280 322 2,700 1,909 Climbing Philadelphia TRACON
05:44PM 40.3167 -74.9000 242° Southwest 268 308 5,000 1,789 Climbing Philadelphia TRACON
05:45PM 40.2833 -74.9833 242° Southwest 274 315 6,100 1,000 Climbing Philadelphia TRACON
05:46PM 40.2333 -75.0500 226° Southwest 293 337 6,900 450 Climbing Philadelphia TRACON
05:47PM 40.1667 -75.1333 224° Southwest 288 331 7,000 910 Climbing Philadelphia TRACON
05:49PM 40.0606 -75.3381 236° Southwest 284 327 10,100 1,245 Climbing New York Center
05:50PM 40.0147 -75.4436 240° Southwest 314 361 11,400 2,033 Climbing New York Center
05:51PM 39.9847 -75.5689 253° West 351 404 14,200 2,797 Climbing New York Center
05:52PM 39.9686 -75.7058 261° West 388 447 16,900 2,400 Climbing New York Center
05:53PM 39.9503 -75.8456 260° West 395 455 19,000 2,000 Climbing New York Center
05:54PM 39.9353 -75.9933 263° West 400 460 20,900 1,983 Climbing New York Center
05:55PM 39.9183 -76.1408 262° West 412 474 22,900 1,869 Climbing New York Center
05:56PM 39.9133 -76.2922 268° West 417 480 24,700 1,785 Climbing New York Center
05:57PM 39.9225 -76.4525 274° West 427 491 26,500 1,664 Climbing New York Center
05:58PM 39.9192 -76.6067 268° West 434 499 28,000 1,835 Climbing New York Center
05:59PM 39.9161 -76.7497 268° West 440 506 30,200 1,815 Climbing New York Center
06:00PM 39.9092 -76.9225 267° West 440 506 31,600 1,361 Climbing New York Center
06:01PM 39.9053 -77.0792 268° West 440 506 32,900 1,131 Climbing New York Center
06:02PM 39.9153 -77.2372 275° West 440 506 33,900 1,050 Climbing New York Center
06:04PM 39.9500 -77.4875 280° West 442 509 35,700 1,170 Climbing Cleveland Center
06:05PM 39.9706 -77.6383 280° West 442 509 37,000 1,050 Climbing Cleveland Center
06:06PM 39.9892 -77.7892 279° West 442 509 37,800 500 Climbing Cleveland Center
06:07PM 40.0072 -77.9431 279° West 442 509 38,000 99 Climbing Cleveland Center
06:08PM 40.0256 -78.0969 279° West 436 502 38,000  Level Cleveland Center
06:09PM 40.0411 -78.2481 278° West 436 502 38,000 -50 Level Cleveland Center
06:10PM 40.0775 -78.3989 288° West 436 502 37,900 -50 Descending Cleveland Center
06:11PM 40.1156 -78.5417 289° West 426 490 37,900 50 Level Cleveland Center
06:12PM 40.1536 -78.6869 289° West 426 490 38,000 -252 Climbing Cleveland Center
06:13PM 40.1914 -78.8356 288° West 426 490 37,400 -800 Descending Cleveland Center
06:14PM 40.2311 -78.9842 289° West 426 490 36,400 -744 Descending Cleveland Center
06:15PM 40.2706 -79.1300 290° West 426 490 35,900 -454 Descending Cleveland Center
06:16PM 40.3056 -79.2764 287° West 426 490 35,500 -500 Descending Cleveland Center
06:17PM 40.3489 -79.4172 292° West 421 484 34,900 -595 Descending Cleveland Center
06:18PM 40.3858 -79.5608 289° West 416 479 34,300 -454 Descending Cleveland Center
06:19PM 40.4222 -79.7022 289° West 416 479 34,000 -150 Descending Cleveland Center
06:20PM 40.4589 -79.8464 289° West 416 479 34,000  Level Cleveland Center
06:21PM 40.4950 -79.9933 288° West 422 486 34,000  Level Cleveland Center
06:22PM 40.5292 -80.1489 286° West 432 497 34,000 -250 Level Cleveland Center
06:23PM 40.5650 -80.2989 288° West 432 497 33,500 -1,240 Descending Cleveland Center
06:24PM 40.6008 -80.4464 288° West 432 497 31,500 -1,800 Descending Cleveland Center
06:25PM 40.6383 -80.5994 288° West 440 506 29,900 -750 Descending Cleveland Center
06:26PM 40.6883 -80.7611 292° West 440 506 30,000 50 Climbing Cleveland Center
06:27PM 40.7506 -80.8956 301° West 434 499 30,000 -403 Level Cleveland Center
06:28PM 40.8167 -81.0303 303° West 434 499 29,200 -1,563 Descending Cleveland Center
06:29PM 40.8767 -81.1597 302° West 434 499 26,900 -2,231 Descending Cleveland Center
06:30PM 40.9383 -81.2894 302° West 423 487 24,700 -1,450 Descending Cleveland Center
06:31PM 40.9981 -81.4139 302° West 412 474 24,000 -353 Descending Cleveland Center
06:32PM 41.0597 -81.5386 303° West 412 474 24,000  Level Cleveland Center
06:33PM 41.1189 -81.6636 302° West 412 474 24,000  Level Cleveland Center
06:34PM 41.1803 -81.7886 303° West 412 474 24,000  Level Cleveland Center
06:35PM 41.2414 -81.9114 304° West 412 474 24,000 -50 Level Cleveland Center
06:36PM 41.3025 -82.0369 303° West 407 468 23,900 -850 Descending Cleveland Center
06:37PM 41.3508 -82.1514 299° West 407 468 22,300 -2,000 Descending Cleveland Center
06:38PM 41.4222 -82.2722 308° West 392 451 19,900 -2,231 Descending Cleveland Center
06:39PM 41.4853 -82.3792 308° West 379 436 17,800 -2,050 Descending Cleveland Center
06:40PM 41.5461 -82.4781 309° West 365 420 15,800 -1,916 Descending Cleveland Center
06:41PM 41.6047 -82.5797 308° West 352 405 14,000 -1,626 Descending Cleveland Center
06:42PM 41.6475 -82.6478 310° West 319 367 12,900 -1,101 Descending Cleveland Center
06:43PM 41.7019 -82.7442 307° West 294 338 12,000 -406 Descending Cleveland Center
06:44PM 41.7647 -82.8325 314° West 301 346 12,000  Level Cleveland Center
06:45PM 41.8219 -82.8958 320° Northwest 284 327 12,000 -350 Level Cleveland Center
06:46PM 41.8728 -82.9564 318° Northwest 264 304 11,300 -526 Descending Cleveland Center
06:47PM 41.9175 -83.0108 318° Northwest 235 270 11,000 -157 Descending Cleveland Center
06:48PM 41.9642 -83.0686 317° Northwest 237 273 11,000  Level Cleveland Center
06:49PM 42.0150 -83.1292 318° Northwest 236 272 11,000  Level Cleveland Center
06:50PM 42.0658 -83.1928 317° Northwest 235 270 11,000  Level Cleveland Center
06:51PM 42.1256 -83.2261 338° Northwest 245 282 11,000 -590 Level Cleveland Center
06:52PM 42.1944 -83.2178 North 249 287 9,800 -1,230 Descending Cleveland Center
06:53PM 42.2517 -83.1753 29° Northeast 248 285 8,500 -885 Descending Cleveland Center
06:54PM 42.3194 -83.1275 28° Northeast 249 287 8,000 -246 Descending Cleveland Center
06:55PM 42.3769 -83.0792 32° Northeast 250 288 8,000  Level Cleveland Center
06:56PM 42.4342 -83.0308 32° Northeast 244 281 8,000 -393 Level Cleveland Center
06:57PM 42.4844 -83.0186 10° North 187 215 7,200 -934 Descending Cleveland Center
06:58PM 42.5103 -83.0817 299° West 180 207 6,100 -590 Descending Cleveland Center
06:59PM 42.4903 -83.1342 243° Southwest 167 192 6,000 -197 Descending Cleveland Center
07:00PM 42.4500 -83.1664 211° Southwest 168 193 5,700 -295 Descending Cleveland Center